Weather History for Wahoo, NE

Change the Weather History Date:

Tuesday, May 15, 2012

  Actual Average Record
Temperature  
Mean Temperature 72 °F -  
Max Temperature 86 °F 75 °F 90 °F (1988)
Min Temperature 58 °F 48 °F 32 °F (1983)
Cooling Degree Days 7    
Growing Degree Days 22 (Base 50)    
Moisture  
Dew Point 38 °F    
Average Humidity 35    
Maximum Humidity 71    
Minimum Humidity 11    
Precipitation  
Precipitation 0.00 in - - ()
Sea Level Pressure  
Sea Level Pressure 30.00 in    
Wind  
Wind Speed 11 mph (WNW)    
Max Wind Speed 23 mph    
Max Gust Speed 31 mph    
Visibility 10 miles    
Events      
Averages and records for this station are not official NWS values.
T = Trace of Precipitation, MM = Missing Value Source: NWS Daily Summary

Daily Weather History Graph

Daily Weather History Graph

Search for Another Location

Airport:

Trip Planner

Search our weather history database for the weather conditions in past years. The results will help you decide how hot, cold, wet, or windy it might be!

Date:

Astronomy

May. 15, 2012 Rise Set
Actual Time 6:07 AM CDT 8:38 PM CDT
Civil Twilight 5:35 AM CDT 9:10 PM CDT
Nautical Twilight 4:56 AM CDT 9:49 PM CDT
Astronomical Twilight 4:12 AM CDT 10:33 PM CDT
Moon 3:12 AM CDT (5/15) 3:55 PM CDT (5/15)
Length of Visible Light 15h 34m
Length of Day
14h 31m
Waning Crescent, 23% of the Moon is Illuminated
May 15
Waning Crescent
May 20
New
May 28
First Quarter
Jun 4
Full
Jun 11
Last Quarter

Hourly Weather History & Observations

Time (CDT) Temp. Dew Point Humidity Pressure Visibility Wind Dir Wind Speed Gust Speed Precip Events Conditions
12:15 AM 66.9 °F 42.4 °F 41% 29.98 in 10.0 mi SSW 8.1 mph - N/A   Clear
12:35 AM 68.2 °F 43.0 °F 40% 29.98 in 10.0 mi South 10.4 mph - N/A   Clear
12:55 AM 68.0 °F 43.9 °F 42% 29.98 in 10.0 mi SSW 12.7 mph 18.4 mph N/A   Clear
1:15 AM 67.6 °F 45.0 °F 44% 29.98 in 10.0 mi SW 16.1 mph - N/A   Clear
1:35 AM 66.7 °F 45.9 °F 47% 29.98 in 10.0 mi SW 17.3 mph - N/A   Clear
1:55 AM 65.5 °F 46.4 °F 50% 29.98 in 10.0 mi SW 13.8 mph 18.4 mph N/A   Clear
2:15 AM 64.0 °F 46.8 °F 53% 29.97 in 10.0 mi SW 11.5 mph - N/A   Clear
2:35 AM 62.6 °F 47.3 °F 57% 29.97 in 10.0 mi SW 10.4 mph - N/A   Clear
2:55 AM 62.8 °F 47.8 °F 58% 29.97 in 10.0 mi SW 10.4 mph - N/A   Clear
3:15 AM 62.8 °F 48.2 °F 59% 29.97 in 10.0 mi SW 10.4 mph - N/A   Clear
3:35 AM 62.6 °F 48.2 °F 59% 29.97 in 10.0 mi SW 9.2 mph - N/A   Clear
3:55 AM 62.6 °F 48.4 °F 60% 29.96 in 10.0 mi SW 10.4 mph - N/A   Clear
4:15 AM 61.5 °F 49.1 °F 64% 29.96 in 10.0 mi SW 8.1 mph - N/A   Clear
4:35 AM 60.8 °F 49.1 °F 65% 29.96 in 10.0 mi SW 6.9 mph - N/A   Clear
4:55 AM 59.9 °F 49.1 °F 67% 29.96 in 10.0 mi SW 6.9 mph - N/A   Clear
5:15 AM 59.2 °F 49.1 °F 69% 29.96 in 10.0 mi SW 6.9 mph - N/A   Clear
5:35 AM 59.0 °F 48.9 °F 69% 29.96 in 10.0 mi SSW 6.9 mph - N/A   Clear
5:55 AM 58.3 °F 48.9 °F 71% 29.97 in 10.0 mi SSW 5.8 mph - N/A   Clear
6:15 AM 58.3 °F 48.7 °F 71% 29.97 in 10.0 mi Calm Calm - N/A   Clear
6:35 AM 59.0 °F 49.3 °F 70% 29.98 in 10.0 mi SW 5.8 mph - N/A   Clear
6:55 AM 59.7 °F 49.8 °F 70% 29.98 in 10.0 mi SW 6.9 mph - N/A   Clear
7:15 AM 60.4 °F 50.0 °F 68% 29.98 in 10.0 mi SW 6.9 mph - N/A   Clear
7:35 AM 61.7 °F 49.5 °F 64% 29.98 in 10.0 mi SW 6.9 mph - N/A   Clear
7:55 AM 63.0 °F 48.9 °F 60% 29.99 in 10.0 mi SW 5.8 mph - N/A   Clear
8:15 AM 64.8 °F 47.5 °F 53% 29.99 in 10.0 mi SW 6.9 mph - N/A   Clear
8:35 AM 66.7 °F 45.3 °F 46% 29.99 in 10.0 mi SW 9.2 mph - N/A   Clear
8:55 AM 69.6 °F 43.2 °F 38% 29.98 in 10.0 mi SW 8.1 mph - N/A   Clear
9:15 AM 72.3 °F 41.7 °F 33% 29.98 in 10.0 mi SW 8.1 mph - N/A   Clear
9:35 AM 74.5 °F 41.5 °F 31% 29.99 in 10.0 mi WSW 9.2 mph - N/A   Clear
9:55 AM 76.5 °F 40.6 °F 28% 29.98 in 10.0 mi WSW 9.2 mph - N/A   Clear
10:15 AM 77.9 °F 36.7 °F 23% 29.98 in 10.0 mi West 9.2 mph - N/A   Clear
10:35 AM 78.6 °F 37.2 °F 23% 29.98 in 10.0 mi West 5.8 mph - N/A   Clear
10:55 AM 79.3 °F 38.3 °F 23% 29.98 in 10.0 mi Calm Calm - N/A   Clear
11:15 AM 82.4 °F 37.2 °F 20% 29.98 in 10.0 mi NW 5.8 mph - N/A   Clear
11:35 AM 83.7 °F 36.5 °F 19% 29.99 in 10.0 mi NNW 10.4 mph - N/A   Clear
11:55 AM 84.0 °F 39.0 °F 20% 29.99 in 10.0 mi NNW 13.8 mph - N/A   Clear
12:15 PM 85.6 °F 40.3 °F 20% 29.98 in 10.0 mi NW 12.7 mph 17.3 mph N/A   Clear
12:35 PM 86.2 °F 39.7 °F 19% 29.98 in 10.0 mi NNW 17.3 mph 25.3 mph N/A   Clear
12:55 PM 85.8 °F 41.7 °F 21% 29.98 in 10.0 mi NNW 15.0 mph 26.5 mph N/A   Clear
1:15 PM 85.6 °F 40.8 °F 21% 29.98 in 10.0 mi NNW 20.7 mph 26.5 mph N/A   Clear
1:35 PM 86.9 °F 41.2 °F 20% 29.98 in 10.0 mi NNW 20.7 mph 26.5 mph N/A   Clear
1:55 PM 86.0 °F 38.5 °F 19% 29.99 in 10.0 mi NNW 23.0 mph 29.9 mph N/A   Clear
2:15 PM 86.9 °F 34.5 °F 15% 29.99 in 10.0 mi North 21.9 mph 26.5 mph N/A   Clear
2:35 PM 85.3 °F 33.6 °F 16% 29.99 in 10.0 mi North 20.7 mph - N/A   Clear
2:55 PM 86.2 °F 33.1 °F 15% 29.99 in 10.0 mi North 19.6 mph 28.8 mph N/A   Clear
3:15 PM 86.2 °F 32.4 °F 15% 29.99 in 10.0 mi North 20.7 mph 31.1 mph N/A   Clear
3:35 PM 86.0 °F 31.1 °F 14% 29.99 in 10.0 mi North 18.4 mph 29.9 mph N/A   Clear
3:55 PM 85.3 °F 29.1 °F 13% 29.99 in 10.0 mi North 17.3 mph 27.6 mph N/A   Clear
4:15 PM 85.1 °F 29.1 °F 13% 29.99 in 10.0 mi North 18.4 mph 25.3 mph N/A   Clear
4:35 PM 85.5 °F 29.5 °F 13% 29.99 in 10.0 mi North 18.4 mph 29.9 mph N/A   Clear
4:55 PM 83.7 °F 26.6 °F 12% 30.00 in 10.0 mi North 20.7 mph 27.6 mph N/A   Clear
5:15 PM 82.4 °F 25.2 °F 12% 30.00 in 10.0 mi NNW 17.3 mph 23.0 mph N/A   Clear
5:35 PM 82.9 °F 23.9 °F 11% 30.00 in 10.0 mi North 18.4 mph 24.2 mph N/A   Clear
5:55 PM 82.6 °F 25.5 °F 12% 30.00 in 10.0 mi North 16.1 mph 23.0 mph N/A   Clear
6:15 PM 81.9 °F 22.6 °F 11% 30.00 in 10.0 mi North 18.4 mph 24.2 mph N/A   Clear
6:35 PM 81.1 °F 26.4 °F 13% 30.00 in 10.0 mi North 13.8 mph 23.0 mph N/A   Clear
6:55 PM 80.6 °F 26.8 °F 14% 30.00 in 10.0 mi NNW 16.1 mph - N/A   Clear
7:15 PM 79.5 °F 26.8 °F 14% 30.01 in 10.0 mi North 13.8 mph 20.7 mph N/A   Clear
7:35 PM 78.4 °F 27.3 °F 15% 30.01 in 10.0 mi NNW 15.0 mph - N/A   Clear
7:55 PM 77.2 °F 28.4 °F 17% 30.02 in 10.0 mi North 15.0 mph - N/A   Clear
8:15 PM 75.2 °F 27.5 °F 17% 30.03 in 10.0 mi North 11.5 mph - N/A   Clear
8:35 PM 73.0 °F 29.1 °F 20% 30.04 in 10.0 mi North 10.4 mph - N/A   Clear
8:55 PM 69.6 °F 30.9 °F 24% 30.04 in 10.0 mi North 6.9 mph - N/A   Clear
9:15 PM 67.1 °F 32.4 °F 28% 30.05 in 10.0 mi NNW 8.1 mph - N/A   Clear
9:35 PM 67.1 °F 31.8 °F 27% 30.06 in 10.0 mi NNW 8.1 mph - N/A   Clear
9:55 PM 65.3 °F 32.4 °F 29% 30.07 in 10.0 mi NNW 9.2 mph - N/A   Clear
10:15 PM 63.9 °F 32.4 °F 31% 30.08 in 10.0 mi NNW 6.9 mph - N/A   Clear
10:35 PM 63.5 °F 32.5 °F 31% 30.08 in 10.0 mi NNW 8.1 mph - N/A   Clear
10:55 PM 62.8 °F 32.9 °F 33% 30.09 in 10.0 mi NNW 8.1 mph - N/A   Clear
11:15 PM 61.7 °F 33.3 °F 34% 30.09 in 10.0 mi NNW 6.9 mph - N/A   Clear
11:35 PM 59.2 °F 34.5 °F 40% 30.09 in 10.0 mi NNW 6.9 mph - N/A   Clear
11:55 PM 59.0 °F 34.7 °F 40% 30.10 in 10.0 mi NNW 6.9 mph - N/A   Clear